DW2465 Weather Reports


Display with metric or nautical units.
time (UTC)temp
F
wind
direction
speed
MPH
gust
MPH
rain 1hr
in
rain 24hr
in
rain mn
in
humidity
%
barometer
mb
20260504044532 56 203 0.0 0.0 0.00 0.00 0.00 43 1000.6
20260504043030 56 211 0.0 0.0 0.00 0.00 0.00 43 1000.9
20260504041527 57 232 0.0 0.0 0.00 0.00 0.00 42 1001.1
20260504040028 58 232 0.0 0.0 0.00 0.00 0.00 40 1001.5
20260504034534 58 232 0.0 0.0 0.00 0.00 0.00 40 1001.8
20260504033023 58 232 0.0 0.0 0.00 0.00 0.00 39 1002.1
20260504031517 58 232 0.0 0.0 0.00 0.00 0.00 40 1002.2
20260504030015 58 235 0.0 0.0 0.00 0.00 0.00 40 1002.3
20260504024513 59 236 0.0 0.0 0.00 0.00 0.00 38 1002.3
20260504023011 60 236 0.0 0.0 0.00 0.00 0.00 36 1002.4
20260504021511 61 236 0.0 0.0 0.00 0.00 0.00 34 1002.5
20260504020009 62 235 0.0 0.0 0.00 0.00 0.00 33 1002.6
20260504014515 63 235 0.0 0.0 0.00 0.00 0.00 33 1002.7
20260504013007 64 236 0.0 0.0 0.00 0.00 0.00 31 1002.7
20260504011504 65 254 0.0 0.0 0.00 0.00 0.00 30 1003.0
20260504010003 66 244 0.0 0.0 0.00 0.00 0.00 29 1003.0
20260504004600 67 254 0.0 0.0 0.00 0.00 0.00 29 1003.1
20260504003058 67 264 0.0 0.0 0.00 0.00 0.00 28 1003.1
20260504001611 68 242 0.0 0.0 0.00 0.00 0.00 27 1003.2
20260504000106 68 284 0.0 0.0 0.00 0.00 0.00 27 1003.3
20260503234555 67 254 0.0 0.0 0.00 0.00 0.00 26 1003.5
20260503233056 68 255 0.0 0.0 0.00 0.00 0.00 24 1003.5
20260503231555 69 232 0.0 0.0 0.00 0.00 0.00 25 1003.5
20260503230052 69 296 0.0 0.0 0.00 0.00 0.00 25 1003.7
20260503224552 69 294 0.0 0.0 0.00 0.00 0.00 26 1003.8
20260503223048 68 315 0.0 0.0 0.00 0.00 0.00 25 1003.8
20260503221547 68 268 0.0 0.0 0.00 0.00 0.00 25 1003.9
20260503220047 69 297 0.0 0.0 0.00 0.00 0.00 25 1003.9
20260503214517 68 320 0.0 0.0 0.00 0.00 0.00 26 1004.0
20260503213016 68 227 0.0 0.0 0.00 0.00 0.00 26 1004.2
20260503211612 68 302 0.0 0.0 0.00 0.00 0.00 26 1004.3
20260503210044 68 307 0.0 0.0 0.00 0.00 0.00 24 1004.4
20260503204514 68 294 0.0 0.0 0.00 0.00 0.00 28 1004.6
20260503203021 67 335 0.0 0.0 0.00 0.00 0.00 27 1004.6
20260503201510 67 247 0.0 0.0 0.00 0.00 0.00 28 1004.8
20260503200007 68 241 0.0 0.0 0.00 0.00 0.00 29 1005.0
20260503194506 67 282 0.0 0.0 0.00 0.00 0.00 32 1005.2
20260503193001 66 296 0.0 0.0 0.00 0.00 0.00 30 1005.5
20260503191533 65 317 0.0 0.0 0.00 0.00 0.00 29 1005.8
20260503190033 65 317 0.0 0.0 0.00 0.00 0.00 29 1005.7
20260503184639 66 313 0.0 0.0 0.00 0.00 0.00 31 1005.6
20260503184501 66 300 0.0 0.0 0.00 0.00 0.00 30 1005.6
20260503183107 65 305 0.0 0.0 0.00 0.00 0.00 32 1005.7
20260503181556 65 286 0.0 0.0 0.00 0.00 0.00 30 1006.0
20260503180053 64 325 0.0 0.0 0.00 0.00 0.00 32 1006.0
20260503174609 65 274 0.0 0.0 0.00 0.00 0.00 35 1006.1
20260503173111 64 300 0.0 0.0 0.00 0.00 0.00 35 1006.2
20260503171522 64 275 0.0 0.0 0.00 0.00 0.00 39 1006.2
20260503100108 52 224 0.0 0.0 0.00 0.00 0.00 51 1003.8
20260503081554 56 193 0.0 0.0 0.00 0.00 0.00 46 1004.3